Regional Weather Roundup
Issued by NWS Northern Indiana

Home | Current Version | Previous Version | Text Only | Print | Product List | Glossary Off
Versions: 1 2 3 4 5 6 7 8 9 10 11 12 13 14 15 16 17 18 19 20 21 22 23 24 25 26 27 28 29 30 31 32 33 34 35 36 37 38 39 40 41 42 43 44 45 46 47 48 49 50

000
ASUS43 KIWX 301900
RWRIWX

KIWX WEATHER ROUNDUP
NATIONAL WEATHER SERVICE NORTHERN INDIANA
300 PM EDT TUE SEP 30 2014

NOTE: "FAIR" INDICATES FEW OR NO CLOUDS BELOW 12,000 FEET WITH NO
SIGNIFICANT WEATHER AND/OR OBSTRUCTIONS TO VISIBILITY.

* THESE STATIONS ARE NOT UNDER NWS QUALITY CONTROL. THEY ALSO MAY NOT
  REPORT WEATHER SUCH AS PRECIPITATION OR FOG.

INZ001>027-302000-
NORTHERN INDIANA

CITY           SKY/WX    TMP DP  RH WIND       PRES   REMARKS
GARY*          PTSUNNY   61  50  67 N14       30.03F
SOUTH BEND     NOT AVBL
ELKHART*       CLOUDY    55  45  67 NE6       30.01F
ANGOLA*        CLOUDY    55  46  71 N3        29.99F
FORT WAYNE     CLOUDY    56  48  74 N10       29.99F
PERU/GRISSOM   SUNNY     64  53  69 VRB7      29.97F

$$
INZ028>050-302000-
CENTRAL INDIANA

CITY           SKY/WX    TMP DP  RH WIND       PRES   REMARKS
LAFAYETTE      MOSUNNY   66  51  58 VRB3      29.96F
KOKOMO*        SUNNY     66  48  52 N8        29.97F
MUNCIE*        PTSUNNY   63  50  62 N7        29.96F
INDIANAPOLIS   PTSUNNY   70  54  56 N7        29.94F

$$
MIZ043>046-050>051-056>058-064>065-071>073-077>080-302000-
SOUTHWEST LOWER MICHIGAN

CITY           SKY/WX    TMP DP  RH WIND       PRES   REMARKS
BATTLE CREEK   CLOUDY    56  46  69 NW3       30.00S
COLDWATER*     CLOUDY    56  49  76 N7        29.99S
HILLSDALE*     CLOUDY    55  49  81 N5        29.99R
HOLLAND        CLOUDY    57  46  66 CALM      30.02F
GRAND RAPIDS   CLOUDY    58  48  69 NW5       30.01S
KALAMAZOO      CLOUDY    54  46  74 NW6       30.01F
STURGIS*       CLOUDY    54  48  82 NW5       30.00S
THREE RIVERS*  CLOUDY    55  47  76 NW6       30.01F

$$
OHZ001>008-015>018-024>025-302000-
NORTHWEST OHIO

CITY           SKY/WX    TMP DP  RH WIND       PRES   REMARKS
DEFIANCE       CLOUDY    58  47  66 NW6       29.98F
FINDLAY        CLOUDY    59  49  69 NW7       29.96S
TOLEDO EXPRESS CLOUDY    56  49  77 N8        29.97S
TOLEDO METCALF CLOUDY    58  49  72 N6        29.98S
LIMA           CLOUDY    57  49  74 N8        29.97F

$$
AND FOR LAKE MICHIGAN COASTAL AND OPEN LAKE BUOY OBSERVATIONS

STATION/POSITION TEMP    WIND        PRES    VSBY  WAVE
                 AIR SEA DIR/SP/G                  HT/PER
                 (F)     (DEG/KT/KT) (MB)    (MI)  (FT/S)
CALUMET HARBOR    57     360/ 10/ 12 1015.7F
MICHIGAN CITY     54     360/ 12/ 18   N/A
SAINT JOSEPH      55     340/  8/ 11 1017.3S
SOUTH LAKE BUOY   53 62   10/ 12/ 16 1017.4R         5/ 7
4 MI NW BRIDGMAN  54 62   10/ 12/ 16   N/A           5/ 2
MICHIGAN CITY     56 65   20/ 14/ 19   N/A           6/ 2
SAINT JOSEPH CG                      1016.5      6   4

$$
&&


USA.gov is the U.S. government's official web portal to all federal, state and local government web resources and services.